STARLINK-31548, 59193

Orbit data source: Space-Track

STARLINK-31548, 59193 is a payload satellite owned by SpaceX/Seattle (US) in LEO that was launched on Sun, 10 Mar 2024 UTC via an FALCON 9 launch vehicle from the Air Force Eastern Test Range (AFETR). Payload-class satellites include a variety of spacecraft equipped with specific instruments for various scientific and technological missions. These include communications satellites like Starlink; space stations such as the ISS; scientific satellites like the Hubble; Earth observation satellites from companies like Planet Labs, Umbra, and HawkEye 360; GPS; miniature CubeSats for education and research; and military/defense satellites.

Loading next visibility...
Identifier
59193, 2024-045R
Orbit
LEO
Country
Flag of USUS
Related business
Manufacturer
SpaceX/Seattle
Mission
Operational Commercial Communications
Bus & Motor
STARLINK V2M, Unknown motor
Mass
730 kg wet, ~700 kg dry
Launch date (UTC)
2024-03-10 (2 years ago)
Launch vehicle
FALCON 9
Launch site
Air Force Eastern Test Range (AFETR)
Object type
Payload
Rocket body
Debris
Shape & HBR
Box + 2 Pan, 17.7 m
Radar Cross Section
33.884 m², Large (>1 m²)

Expand to show TLE details & history
Last TLE update: 2 days ago

TLE from 2 days ago
0 STARLINK-31548
1 59193U 24045R   26171.45483809  .00001274  00000-0  55818-4 0  9995
2 59193  43.0034 232.5548 0001623 276.4037  83.6630 15.27581111128877
Epoch: 2026-06-20T10:54Z
TLE epoch observation values (Epoch: 2026-06-20T10:54:58.010Z)
Latitude
-0.00003°
Longitude
160.14384°
Altitude
482.699 km
Speed
7.626 km/s
True Right ascension
15h 30m 13s
True Declination
0° 00' 00"
Sunlit
Object was in full shadow at epoch
Visualization orbit readout
Latitude
Unknown
Longitude
Unknown
Altitude
Unknown
Speed
Unknown
Apparent Right ascension
Unknown
Apparent Declination
Unknown
Sunlit
N/A
Visualization observer readout
Local Sidereal Time
00:39:34
Azimuth
Unknown
Elevation
Unknown
Doppler factor
Unknown
Orbital elements
Apogee altitude
486.104 km
Perigee altitude
483.876 km
Semi-major axis
6,863.127 km
Eccentricity
0.00016
Inclination
43.0034°
RAAN
232.5548°
Arg. of periapsis
276.4037°
True anomaly
83.68148°
Mean anomaly
83.663°
Eccentric anomaly
83.67224°
Mean motion
3.81733 °/min
Orbital period
94.31 mins
BSTAR
0.000055818
Loading maneuver chart data...
Computing Atmospheric mass density...
Loading historical data...
Loading historical data...
Loading historical data...
Loading historical data...
Loading historical data...
Loading historical data...
Loading historical data...

Documentation

Showing up to 5 results
|